Weather History for KCWF - December, 2012

Change the Weather History Date:

Wednesday, December 19, 2012

  Actual Average (KLCH) Record (KLCH)
Temperature  
Mean Temperature 66 °F 53 °F  
Max Temperature 78 °F 63 °F 80 °F (1919)
Min Temperature 53 °F 44 °F 22 °F (1996)
Degree Days  
Heating Degree Days 0 13  
Month to date heating degree days 208  
Since 1 July heating degree days 415  
Cooling Degree Days 0 1  
Month to date cooling degree days 19  
Year to date cooling degree days 2808  
Growing Degree Days 16 (Base 50)    
Moisture  
Dew Point 61 °F    
Average Humidity 89    
Maximum Humidity 96    
Minimum Humidity 61    
Precipitation  
Precipitation 0.00 in 0.14 in 2.38 in (1973)
Month to date precipitation 2.79  
Year to date precipitation 55.60  
Snow  
Snow 0.00 in 0.00 in 0.00 in ()
Month to date snowfall 0.0  
Since 1 July snowfall 0.0  
Snow Depth -    
Sea Level Pressure  
Sea Level Pressure 29.88 in    
Wind  
Wind Speed 8 mph (SE)    
Max Wind Speed 26 mph    
Max Gust Speed 32 mph    
Visibility 9 miles    
Events      
T = Trace of Precipitation, MM = Missing Value Source: NWS Daily Summary

Daily Weather History Graph

Daily Weather History Graph

Search for Another Location

Airport or City:

Trip Planner

Search our weather history database for the weather conditions in past years. The results will help you decide how hot, cold, wet, or windy it might be!

Date:

Astronomy

Dec. 19, 2012 Rise Set
Actual Time 7:04 AM CST 5:15 PM CST
Civil Twilight 6:37 AM CST 5:42 PM CST
Nautical Twilight 6:07 AM CST 6:12 PM CST
Astronomical Twilight 5:38 AM CST 6:41 PM CST
Moon 11:40 AM CST (12/19) No Moon Set
Length of Visible Light 11h 04m
Length of Day
10h 11m
Waxing Crescent, 45% of the Moon is Illuminated
Dec 19
Waxing Crescent
Dec 19
First Quarter
Dec 28
Full
Jan 4
Last Quarter
Jan 11
New

Hourly Weather History & Observations

Time (CST) Temp. Dew Point Humidity Pressure Visibility Wind Dir Wind Speed Gust Speed Precip Events Conditions
12:15 AM 54.9 °F 53.6 °F 96% 29.94 in 3.0 mi SE 4.6 mph - N/A   Clear
12:35 AM 55.6 °F 54.3 °F 96% 29.94 in 10.0 mi SE 6.9 mph - N/A   Clear
12:55 AM 56.3 °F 55.0 °F 96% 29.94 in 10.0 mi SE 4.6 mph - N/A   Clear
1:15 AM 55.6 °F 54.1 °F 95% 29.93 in 10.0 mi SE 5.8 mph - N/A   Clear
1:35 AM 56.5 °F 55.4 °F 96% 29.93 in 10.0 mi ESE 4.6 mph - N/A   Clear
1:55 AM 56.5 °F 55.2 °F 96% 29.94 in 10.0 mi ESE 4.6 mph - N/A   Clear
2:15 AM 55.9 °F 54.5 °F 95% 29.93 in 10.0 mi East 3.5 mph - N/A   Clear
2:35 AM 55.2 °F 53.8 °F 95% 29.93 in 7.0 mi ESE 3.5 mph - N/A   Clear
2:55 AM 55.8 °F 54.3 °F 95% 29.93 in 10.0 mi Calm Calm - N/A   Clear
3:15 AM 55.2 °F 53.6 °F 94% 29.93 in 5.0 mi ESE 3.5 mph - N/A   Clear
3:35 AM 54.5 °F 52.9 °F 94% 29.93 in 5.0 mi SE 4.6 mph - N/A   Clear
3:55 AM 54.5 °F 53.1 °F 95% 29.92 in 10.0 mi ESE 4.6 mph - N/A   Clear
4:15 AM 53.8 °F 52.3 °F 95% 29.92 in 10.0 mi SE 3.5 mph - N/A   Clear
4:35 AM 55.0 °F 53.6 °F 95% 29.92 in 10.0 mi ESE 4.6 mph - N/A   Clear
4:55 AM 55.0 °F 53.6 °F 95% 29.92 in 10.0 mi SE 4.6 mph - N/A   Clear
5:15 AM 55.0 °F 53.6 °F 95% 29.92 in 10.0 mi ESE 4.6 mph - N/A   Clear
5:35 AM 55.2 °F 53.8 °F 95% 29.92 in 10.0 mi ESE 4.6 mph - N/A   Clear
5:55 AM 54.9 °F 53.6 °F 96% 29.92 in 10.0 mi ESE 5.8 mph - N/A   Clear
6:00 AM 55.4 °F 53.6 °F 94% 29.92 in 10.0 mi ESE 5.8 mph - N/A   Clear
6:45 AM 55.4 °F 53.6 °F 94% 29.92 in 10.0 mi ESE 5.8 mph - N/A   Clear
7:50 AM 60.8 °F 57.2 °F 88% 29.93 in 10.0 mi SE 5.8 mph - N/A   Clear
8:45 AM 64.4 °F 62.6 °F 94% 29.94 in 10.0 mi SE 8.1 mph - N/A   Clear
9:48 AM 71.6 °F 64.4 °F 78% 29.94 in 10.0 mi SSE 12.7 mph - N/A   Clear
10:45 AM 75.2 °F 64.4 °F 69% 29.93 in 10.0 mi SSE 20.7 mph 23.0 mph N/A   Clear
11:50 AM 78.8 °F 64.4 °F 61% 29.90 in 10.0 mi SSE 23.0 mph 32.2 mph N/A   Scattered Clouds
12:50 PM 78.8 °F 66.2 °F 65% 29.87 in 10.0 mi SSE 26.5 mph 31.1 mph N/A   Scattered Clouds
1:50 PM 78.8 °F 66.2 °F 65% 29.85 in 10.0 mi SSE 20.7 mph 27.6 mph N/A   Mostly Cloudy
2:50 PM 78.8 °F 66.2 °F 65% 29.83 in 10.0 mi SSE 21.9 mph 29.9 mph N/A   Mostly Cloudy
3:50 PM 75.2 °F 68.0 °F 78% 29.83 in 10.0 mi South 19.6 mph 24.2 mph N/A   Overcast
4:50 PM 73.4 °F 68.0 °F 83% 29.82 in 10.0 mi SSE 12.7 mph 18.4 mph N/A   Mostly Cloudy
5:50 PM 71.6 °F 68.0 °F 88% 29.83 in 10.0 mi SSE 13.8 mph 17.3 mph N/A   Overcast
6:50 PM 71.6 °F 68.0 °F 88% 29.80 in 10.0 mi SSE 10.4 mph - N/A   Mostly Cloudy
7:55 PM 71.6 °F 68.0 °F 88% 29.81 in 10.0 mi South 10.4 mph - N/A   Overcast
8:50 PM 71.6 °F 69.8 °F 94% 29.81 in 7.0 mi South 12.7 mph 18.4 mph N/A   Overcast
9:50 PM 71.6 °F 69.8 °F 94% 29.80 in 7.0 mi South 12.7 mph - N/A   Overcast
10:15 PM 71.6 °F 69.3 °F 92% 29.80 in 7.0 mi South 16.1 mph 20.7 mph N/A   Overcast
10:35 PM 71.8 °F 69.4 °F 92% 29.79 in 5.0 mi South 11.5 mph - N/A   Overcast
10:55 PM 71.8 °F 69.3 °F 92% 29.79 in 7.0 mi South 11.5 mph - N/A   Overcast
11:15 PM 71.8 °F 69.1 °F 91% 29.79 in 7.0 mi South 13.8 mph 19.6 mph N/A   Overcast
11:35 PM 72.1 °F 69.4 °F 91% 29.78 in 7.0 mi South 15.0 mph 20.7 mph N/A   Overcast
11:55 PM 72.7 °F 70.0 °F 91% 29.79 in 7.0 mi South 13.8 mph 19.6 mph N/A   Overcast